[[{"header":{"parameterUnit":"m.s-1","parameterCategory":2,"la1":30.2991,"la2":30.254,"lo1":-89.0895,"lo2":-89.0444,"dy":0.0017,"dx":0.0017,"nx":28,"ny":28,"refTime":"2025-08-15T21:00:00:Z","depth":"0","parameterNumber":2,"parameterNumberName":"U-component_of_CURRENTS"},"data":[0,0,0,0,0,0,0,0,0,0,0,0,0,0,0,0,0,0,0,0,0,0,0,0,0,0,0,0,0,0,0,0,0,0,0,0,0,0,0,0,0,0,0,0,0,0,0,0,0,0,0,0,0,0,0,0,0,0,0.2912,0.2912,0,0.306,0.3064,0.3067,0.3108,0.3106,0.3103,0.31,0.3078,0.308,0.3082,0,0,0,0,0,0,0,0,0,0,0,0,0,0.2866,0.2867,0.2912,0.2912,0.2912,0.306,0.3064,0.3068,0.3109,0.3106,0.3102,0.3099,0.3077,0.3079,0.3082,0,0,0,0,0,0,0,0,0,0,0,0,0,0.2957,0.2867,0.2912,0.2935,0.2937,0.3059,0.3064,0.3069,0.311,0.3106,0.3101,0.3097,0.3076,0.3079,0.3082,0.3184,0,0,0.3091,0.3092,0,0,0,0,0,0,0,0,0.2951,0.2961,0.2931,0.2933,0.2935,0.3043,0.3038,0.3092,0.3111,0.3066,0.31,0.3095,0.3039,0.3045,0.3115,0.3183,0.3182,0.3091,0.3093,0.3094,0.3095,0,0,0,0,0,0,0,0.2945,0.2956,0.2992,0.2931,0.2934,0.3004,0.3014,0.3052,0.3088,0.307,0.3068,0.3052,0.3042,0.3113,0.3114,0.3181,0.3091,0.3094,0.3096,0.3097,0.3178,0.3178,0,0,0,0,0,0,0.2878,0.2949,0.2987,0.2994,0.2909,0.3006,0.3018,0.303,0.3091,0.3092,0.3056,0.3053,0.311,0.311,0.3113,0.3079,0.3094,0.3097,0.3099,0.3177,0.3178,0.3178,0,0,0,0,0,0,0.2878,0.2882,0.2981,0.2957,0.2971,0.3008,0.3024,0.3035,0.3078,0.3078,0.3079,0.308,0.3106,0.3108,0.3086,0.3083,0.3099,0.3101,0.3177,0.3178,0.3178,0.311,0,0,0,0,0,0,0.2877,0.2882,0.2897,0.2953,0.2969,0.3021,0.3026,0.304,0.3065,0.3064,0.31,0.3096,0.3103,0.3082,0.3089,0.3087,0.3104,0.3176,0.3177,0.3178,0.3112,0.3108,0.3105,0,0,0,0,0,0.2875,0.2845,0.2898,0.2902,0.298,0.3019,0.3038,0.3064,0.3069,0.3092,0.3084,0.3093,0.3092,0.3084,0.3093,0.3091,0.3176,0.3177,0.3178,0.3113,0.3109,0.3105,0,0,0,0,0,0,0.2792,0.2848,0.2905,0.2889,0.2952,0.3016,0.3018,0.3065,0.3099,0.3075,0.3095,0.3091,0.3073,0.3101,0.3092,0.312,0.314,0.3142,0.3088,0.3084,0.3081,0.3053,0.3106,0,0,0,0,0,0.2797,0.2807,0.2883,0.2869,0.2898,0.2982,0.3007,0.3035,0.3053,0.3068,0.3087,0.3098,0.3102,0.3097,0.3114,0.3135,0.3157,0.3143,0.314,0.3137,0.3122,0.3173,0.3172,0.3181,0.3181,0.3181,0,0,0.2764,0.2782,0.2796,0.2858,0.291,0.2953,0.299,0.3004,0.3022,0.3055,0.3066,0.3084,0.3103,0.3105,0.3104,0.3115,0.3141,0.3138,0.3134,0.3121,0.3173,0.3172,0.3172,0.3181,0.3181,0.3181,0,0,0.2684,0.2724,0.2736,0.2797,0.2853,0.2898,0.2897,0.2978,0.2995,0.3021,0.3033,0.3031,0.3073,0.3075,0.3081,0.3078,0.3119,0.3103,0.3065,0.3114,0.3113,0.3113,0.3113,0.3113,0.3105,0.3105,0.3105,0,0.2642,0.2684,0.274,0.2775,0.2805,0.2866,0.2901,0.2935,0.2991,0.299,0.2991,0.3043,0.3052,0.3048,0.3039,0.3066,0.3096,0.3072,0.3108,0.3108,0.3109,0.3109,0.311,0.3102,0.3102,0.3102,0.3103,0,0.2623,0.2664,0.2651,0.2736,0.2776,0.2793,0.285,0.287,0.2888,0.2926,0.2927,0.2957,0.2982,0.2999,0.3011,0.303,0.3047,0.3093,0.311,0.3103,0.3105,0.3107,0.3097,0.3098,0.3099,0.31,0,0,0.2528,0.2625,0.2639,0.2686,0.2764,0.2787,0.2786,0.282,0.2805,0.2854,0.2853,0.2868,0.2898,0.2908,0.2946,0.2985,0.3003,0.304,0.3045,0.3025,0.3088,0.2938,0.2926,0.3072,0.3073,0.3073,0.3076,0,0.2516,0.2559,0.2622,0.2668,0.2702,0.2759,0.2755,0.2779,0.2786,0.2792,0.2814,0.2827,0.286,0.2878,0.2916,0.2997,0.3012,0.2995,0.3111,0.3112,0.2969,0.2925,0.2825,0.2805,0.3078,0.3079,0.3079,0,0.2517,0.2545,0.2577,0.2645,0.2667,0.2683,0.2689,0.2712,0.2711,0.2718,0.2732,0.2761,0.2798,0.2843,0.2939,0.2938,0.2992,0.3048,0.3051,0.2934,0.2966,0.2865,0.28,0.2768,0.3083,0.3083,0.3082,0,0.2435,0.2525,0.253,0.2566,0.2632,0.263,0.2666,0.2671,0.2676,0.2683,0.2678,0.2725,0.2756,0.2847,0.2928,0.2957,0.3033,0.3092,0.299,0.298,0.2923,0.2904,0.2824,0.3139,0.3139,0.3139,0.3139,0,0.2395,0.2422,0.2488,0.2497,0.2496,0.258,0.2561,0.2586,0.2614,0.2603,0.2646,0.2635,0.2768,0.2817,0.2908,0.2925,0.3014,0.2949,0.2965,0.2891,0.287,0.2864,0.2866,0.3139,0.3139,0.3139,0.3139,0,0.231,0.2355,0.2369,0.243,0.2446,0.245,0.2522,0.2513,0.2547,0.2539,0.2547,0.2589,0.2624,0.2712,0.2842,0.2867,0.2839,0.2913,0.2774,0.277,0.2604,0.2606,0.2386,0.2339,0.2788,0.2784,0.2781,0,0.2255,0.2248,0.2298,0.2308,0.2334,0.2364,0.2373,0.2449,0.2453,0.2494,0.2482,0.25,0.2478,0.2558,0.2603,0.2662,0.2667,0.26,0.2611,0.2531,0.2551,0.2448,0.2421,0.252,0.2515,0.251,0.2507,0,0.2176,0.2188,0.2229,0.2221,0.2232,0.224,0.2277,0.2274,0.235,0.2334,0.2328,0.2325,0.2337,0.2315,0.2348,0.2398,0.245,0.2509,0.2503,0.2357,0.217,0.2154,0.2559,0.247,0.2474,0.2476,0.2478,0.248,0.214,0.2138,0.2175,0.2154,0.2167,0.2124,0.2088,0.2127,0.211,0.2081,0.2156,0.2104,0.214,0.2137,0.2153,0.2102,0.2128,0.2118,0.2136,0.2044,0.1942,0.2198,0.2076,0.2077,0.2079,0.208,0.2081,0,0.2081,0.2104,0.2108,0.2084,0.2028,0.2041,0.202,0.1953,0.1884,0.1913,0.188,0.1871,0.1834,0.187,0.1855,0.1809,0.176,0.1782,0.1694,0.1701,0.2017,0.1953,0.1703,0.1703,0.1703,0.1703,0.1703,0.1703,0.2083,0.2065,0.204,0.1933,0.1897,0.1773,0.1717,0.1639,0.1634,0.1556,0.1537,0.1585,0.1699,0.1685,0.1645,0.1618,0.156,0.1404,0.1457,0.1781,0.1817,0.1851,0.1791,0.1512,0.1512,0.1082,0.1079,0.1076]},{"header":{"parameterUnit":"m.s-1","parameterCategory":2,"la1":30.2991,"la2":30.254,"lo1":-89.0895,"lo2":-89.0444,"dy":0.0017,"dx":0.0017,"nx":28,"ny":28,"refTime":"2025-08-15T21:00:00:Z","depth":"0","parameterNumber":3,"parameterNumberName":"V-component_of_CURRENTS"},"data":[0,0,0,0,0,0,0,0,0,0,0,0,0,0,0,0,0,0,0,0,0,0,0,0,0,0,0,0,0,0,0,0,0,0,0,0,0,0,0,0,0,0,0,0,0,0,0,0,0,0,0,0,0,0,0,0,0,0,0.0016,0.0016,0,0.0084,0.0085,0.0086,0.0117,0.0116,0.0116,0.0116,0.0255,0.0259,0.0263,0,0,0,0,0,0,0,0,0,0,0,0,0,-0.0024,-0.0023,0.0016,0.0016,0.0017,0.0084,0.0085,0.0086,0.0117,0.0116,0.0116,0.0116,0.0253,0.0258,0.0263,0,0,0,0,0,0,0,0,0,0,0,0,0,0.0016,-0.0023,0.0015,0.0038,0.0041,0.0084,0.0085,0.0087,0.0117,0.0116,0.0116,0.0115,0.0252,0.0258,0.0264,0.0311,0,0,0.0282,0.0285,0,0,0,0,0,0,0,0,0.0014,0.0018,0.0034,0.0037,0.0039,0.0089,0.0122,0.0164,0.0117,0.0091,0.0116,0.0115,0.0205,0.0214,0.0231,0.0317,0.0323,0.0282,0.0286,0.0289,0.029,0,0,0,0,0,0,0,0.0011,0.0016,0.0045,0.0035,0.0038,0.0067,0.0072,0.0131,0.0153,0.0093,0.0095,0.0098,0.0207,0.0225,0.0235,0.0325,0.0282,0.0288,0.0291,0.0294,0.0488,0.049,0,0,0,0,0,0,-0.0006,0.0013,0.0043,0.0047,0.0022,0.0068,0.0073,0.0076,0.0151,0.016,0.0099,0.0099,0.0215,0.0228,0.024,0.0323,0.0289,0.0294,0.0298,0.0487,0.0489,0.049,0,0,0,0,0,0,-0.0007,-0.0004,0.004,0.003,0.0037,0.0068,0.0071,0.0077,0.0094,0.0154,0.0165,0.0108,0.0215,0.0231,0.0303,0.0328,0.0297,0.0302,0.0485,0.0487,0.0489,0.0476,0,0,0,0,0,0,-0.0008,-0.0004,-0.0006,0.0028,0.0037,0.007,0.0072,0.0079,0.0096,0.0097,0.0166,0.0178,0.0216,0.0294,0.0309,0.0336,0.0307,0.0483,0.0486,0.0489,0.0474,0.0477,0.048,0,0,0,0,0,-0.001,-0.0003,-0.0006,-0.0002,0.0033,0.0071,0.0079,0.0101,0.0096,0.0112,0.0161,0.0176,0.0323,0.0301,0.0318,0.0346,0.0481,0.0485,0.0488,0.0473,0.0477,0.048,0,0,0,0,0,0,-0.0015,0.0001,-0.0001,0.001,0.0036,0.0075,0.0087,0.01,0.0148,0.015,0.0201,0.0218,0.0288,0.0323,0.0296,0.0412,0.0404,0.0411,0.0386,0.039,0.0393,0.0378,0.0312,0,0,0,0,0,-0.0021,-0.0012,0.0008,0.0021,0.0026,0.0053,0.0069,0.0086,0.013,0.0149,0.0198,0.0256,0.0318,0.0356,0.0413,0.0481,0.0485,0.051,0.0513,0.0515,0.0516,0.0538,0.0542,0.0502,0.0502,0.0502,0,0,-0.0022,-0.0009,-0.0006,0.002,0.0036,0.0061,0.0063,0.0089,0.0123,0.016,0.0223,0.0268,0.0337,0.0411,0.0445,0.0443,0.053,0.052,0.0521,0.0521,0.0542,0.0545,0.0548,0.0504,0.0504,0.0503,0,0,-0.0004,-0.001,0.0005,0.0025,0.005,0.0068,0.0072,0.0111,0.0136,0.02,0.0235,0.029,0.0387,0.0439,0.0478,0.0533,0.054,0.0556,0.0566,0.0586,0.0589,0.0591,0.0593,0.0595,0.0562,0.0562,0.0562,0,-0.0004,0.0015,0.0019,0.0043,0.0058,0.0068,0.0093,0.0126,0.0191,0.0223,0.022,0.0353,0.04,0.0492,0.051,0.0538,0.0544,0.0542,0.0587,0.0589,0.0592,0.0593,0.0596,0.0561,0.0561,0.0561,0.0562,0,0.0025,0.0042,0.0053,0.008,0.01,0.0123,0.0154,0.0187,0.0208,0.0248,0.0329,0.0389,0.0465,0.0491,0.052,0.0578,0.0573,0.0579,0.0568,0.0595,0.0595,0.0598,0.0561,0.0561,0.0561,0.0561,0,0,0.0026,0.0064,0.0067,0.0086,0.0117,0.014,0.0186,0.0238,0.0275,0.0329,0.0386,0.0475,0.049,0.0534,0.0573,0.0594,0.061,0.0595,0.0596,0.0578,0.0642,0.0631,0.0633,0.0621,0.0622,0.0622,0.063,0,0.0049,0.0093,0.0105,0.015,0.0175,0.0192,0.0235,0.0285,0.0328,0.0389,0.0442,0.0511,0.0514,0.0548,0.0569,0.0615,0.0621,0.0607,0.0636,0.0636,0.0608,0.0638,0.0613,0.0618,0.0633,0.0634,0.0634,0,0.008,0.0105,0.0147,0.019,0.0197,0.0222,0.0277,0.032,0.04,0.0434,0.0493,0.0537,0.0602,0.0582,0.064,0.0631,0.063,0.0643,0.0644,0.0641,0.0632,0.0599,0.0623,0.0641,0.0639,0.0639,0.0638,0,0.0099,0.0139,0.0171,0.0185,0.0232,0.0252,0.027,0.0337,0.0384,0.0463,0.0504,0.0573,0.0621,0.0633,0.0663,0.0653,0.0706,0.0696,0.0676,0.0674,0.0664,0.066,0.0694,0.0706,0.0706,0.0706,0.0706,0,0.0137,0.0171,0.0177,0.0204,0.0238,0.0258,0.0311,0.0345,0.0407,0.0473,0.0522,0.0584,0.0635,0.0679,0.0676,0.0695,0.0713,0.0681,0.0682,0.0659,0.0655,0.0678,0.0676,0.0706,0.0706,0.0706,0.0706,0,0.0191,0.0196,0.0235,0.0252,0.0261,0.0284,0.0324,0.0373,0.0412,0.0497,0.0524,0.061,0.0664,0.0697,0.0734,0.0721,0.0738,0.0721,0.0683,0.0679,0.067,0.0668,0.0682,0.0743,0.0701,0.0701,0.0701,0,0.024,0.0259,0.0262,0.0285,0.0298,0.0327,0.0363,0.0385,0.0435,0.0517,0.0566,0.0637,0.07,0.0745,0.0738,0.0729,0.0741,0.0693,0.0668,0.0673,0.0672,0.0662,0.0715,0.0644,0.0643,0.0643,0.0642,0,0.0324,0.0305,0.0329,0.0347,0.0373,0.0408,0.0444,0.0472,0.0514,0.0567,0.0637,0.0681,0.0721,0.0728,0.0719,0.0703,0.071,0.0682,0.0707,0.0648,0.0621,0.068,0.0624,0.0638,0.0639,0.0639,0.0639,0.0639,0.0387,0.0398,0.04,0.0425,0.0451,0.0484,0.0503,0.0544,0.0594,0.0656,0.0686,0.0755,0.074,0.073,0.0704,0.0662,0.0682,0.0644,0.0643,0.0637,0.069,0.0616,0.0623,0.0623,0.0624,0.0624,0.0624,0,0.0464,0.0462,0.0484,0.0498,0.0523,0.0519,0.0564,0.0576,0.0618,0.0699,0.0741,0.0806,0.0763,0.0732,0.0646,0.0626,0.0648,0.0632,0.062,0.0684,0.0631,0.0623,0.0608,0.0608,0.0608,0.0608,0.0608,0.0608,0.0508,0.0531,0.052,0.0558,0.0566,0.0579,0.0592,0.0612,0.0662,0.0745,0.0821,0.0893,0.0941,0.0686,0.0611,0.0606,0.0679,0.0617,0.0711,0.0657,0.0659,0.066,0.0655,0.0646,0.0646,0.0775,0.0776,0.0777]}],[{"header":{"parameterUnit":"m.s-1","parameterCategory":2,"la1":30.2991,"la2":30.254,"lo1":-89.0895,"lo2":-89.0444,"dy":0.0017,"dx":0.0017,"nx":28,"ny":28,"refTime":"2025-08-15T21:00:00:Z","depth":"2","parameterNumber":2,"parameterNumberName":"U-component_of_CURRENTS"},"data":[0,0,0,0,0,0,0,0,0,0,0,0,0,0,0,0,0,0,0,0,0,0,0,0,0,0,0,0,0,0,0,0,0,0,0,0,0,0,0,0,0,0,0,0,0,0,0,0,0,0,0,0,0,0,0,0,0,0,0.16,0.1597,0,0.1467,0.1467,0.1468,0.182,0.1829,0.1838,0.1847,0.2196,0.2197,0.2198,0,0,0,0,0,0,0,0,0,0,0,0,0,0.1698,0.1699,0.16,0.1597,0.1593,0.1467,0.1467,0.1468,0.1818,0.1829,0.1841,0.1851,0.2196,0.2197,0.2198,0,0,0,0,0,0,0,0,0,0,0,0,0,0.164,0.17,0.1601,0.1738,0.1748,0.1467,0.1467,0.1468,0.1816,0.183,0.1843,0.1856,0.2196,0.2197,0.2198,0.1932,0,0,0.2202,0.2202,0,0,0,0,0,0,0,0,0.1643,0.1639,0.1721,0.1728,0.1738,0.1656,0.1628,0.164,0.1813,0.1812,0.1847,0.1863,0.2036,0.2051,0.2019,0.1948,0.1963,0.2202,0.2203,0.2203,0.2203,0,0,0,0,0,0,0,0.1648,0.1643,0.1569,0.1716,0.1725,0.1646,0.166,0.163,0.1874,0.1813,0.1833,0.1781,0.205,0.2016,0.2031,0.1968,0.2202,0.2203,0.2204,0.2204,0.2235,0.2235,0,0,0,0,0,0,0.1631,0.1649,0.1573,0.1563,0.17,0.1634,0.165,0.1685,0.1865,0.1895,0.1769,0.1797,0.2007,0.2029,0.2045,0.2215,0.2203,0.2204,0.2205,0.2235,0.2235,0.2235,0,0,0,0,0,0,0.1635,0.1629,0.1578,0.1581,0.1568,0.162,0.1654,0.1675,0.1732,0.1822,0.1871,0.1816,0.2019,0.2043,0.2211,0.2216,0.2205,0.2206,0.2235,0.2235,0.2235,0.2252,0,0,0,0,0,0,0.164,0.1633,0.1642,0.1583,0.1566,0.1577,0.1639,0.1662,0.1663,0.1703,0.1872,0.1915,0.2032,0.2209,0.2212,0.2217,0.2207,0.2235,0.2235,0.2235,0.2252,0.2253,0.2254,0,0,0,0,0,0.1645,0.1647,0.1646,0.1633,0.1585,0.1577,0.157,0.1656,0.1652,0.1744,0.1873,0.1915,0.2212,0.2211,0.2214,0.222,0.2235,0.2235,0.2235,0.2251,0.2253,0.2254,0,0,0,0,0,0,0.1657,0.1675,0.1678,0.1675,0.1682,0.1636,0.167,0.1634,0.1764,0.1842,0.1918,0.1971,0.2126,0.2136,0.213,0.2227,0.222,0.2221,0.2231,0.2233,0.2234,0.223,0.2208,0,0,0,0,0,0.1643,0.1701,0.167,0.1668,0.1696,0.1651,0.1631,0.1691,0.1758,0.1828,0.1913,0.2006,0.208,0.2149,0.2244,0.2246,0.2249,0.2248,0.2249,0.225,0.2248,0.2242,0.2243,0.2236,0.2236,0.2236,0,0,0.162,0.1636,0.1656,0.1676,0.1694,0.167,0.1697,0.1741,0.1723,0.1831,0.192,0.2029,0.2091,0.2202,0.2256,0.2238,0.2261,0.225,0.2252,0.2249,0.2243,0.2243,0.2244,0.2236,0.2236,0.2236,0,0,0.1594,0.1666,0.1703,0.1716,0.1747,0.1731,0.1741,0.1752,0.1838,0.187,0.1968,0.2103,0.2147,0.2249,0.227,0.2286,0.2285,0.2286,0.227,0.2265,0.2265,0.2266,0.2302,0.2305,0.2265,0.2265,0.2265,0,0.1582,0.1594,0.1699,0.1707,0.1697,0.1749,0.1739,0.1757,0.1813,0.1885,0.1962,0.2069,0.2161,0.2221,0.2285,0.229,0.2295,0.2266,0.2267,0.2267,0.2267,0.2303,0.2307,0.2266,0.2266,0.2266,0.2266,0,0.1549,0.1557,0.1595,0.1638,0.1655,0.1692,0.1717,0.1805,0.1852,0.1859,0.2016,0.2135,0.2222,0.2233,0.227,0.2297,0.2307,0.2288,0.2263,0.2269,0.2307,0.2311,0.2267,0.2267,0.2267,0.2266,0,0,0.1572,0.158,0.1606,0.1609,0.1646,0.1677,0.171,0.1783,0.1825,0.1926,0.1961,0.2109,0.2206,0.2235,0.2288,0.2273,0.2309,0.2278,0.2277,0.2316,0.2324,0.2079,0.2059,0.228,0.228,0.2279,0.2363,0,0.1542,0.1539,0.155,0.1536,0.1539,0.1631,0.1651,0.1737,0.1826,0.1899,0.2022,0.2099,0.2178,0.2245,0.2256,0.2286,0.2312,0.229,0.231,0.2312,0.2093,0.2051,0.2015,0.206,0.2366,0.2366,0.2367,0,0.1517,0.1518,0.1508,0.1536,0.1571,0.1571,0.1724,0.173,0.1848,0.1946,0.205,0.2114,0.2176,0.2204,0.2279,0.2258,0.2317,0.2322,0.2325,0.2084,0.2068,0.2097,0.2055,0.2372,0.2372,0.2371,0.2371,0,0.1523,0.151,0.1522,0.1519,0.154,0.1625,0.1669,0.1787,0.1873,0.1951,0.2028,0.2101,0.2162,0.2193,0.2246,0.2272,0.2261,0.2304,0.2157,0.2144,0.2107,0.2085,0.2362,0.2362,0.2362,0.2362,0.2362,0,0.1506,0.1522,0.1542,0.155,0.1605,0.1638,0.1738,0.182,0.1933,0.1983,0.2055,0.2088,0.2157,0.2162,0.2208,0.2151,0.2257,0.2138,0.212,0.211,0.2089,0.2347,0.2344,0.2365,0.2364,0.2364,0.2363,0,0.1526,0.1527,0.1522,0.1575,0.1593,0.1654,0.1775,0.185,0.1959,0.2004,0.2031,0.2115,0.2076,0.2106,0.2125,0.2101,0.2057,0.2036,0.2017,0.1987,0.1985,0.1983,0.1897,0.1888,0.1881,0.1874,0.1869,0,0.153,0.1525,0.1546,0.1576,0.1617,0.1689,0.1741,0.1855,0.1898,0.1987,0.1986,0.2002,0.1985,0.19,0.1819,0.1795,0.1897,0.1703,0.1714,0.1931,0.1925,0.1934,0.1941,0.1745,0.1739,0.1735,0.1731,0,0.1537,0.1569,0.161,0.1614,0.167,0.1675,0.1738,0.1789,0.1859,0.1912,0.1911,0.191,0.1822,0.1694,0.1588,0.1572,0.1669,0.1593,0.1842,0.1788,0.177,0.1769,0.1786,0.1689,0.1693,0.1696,0.1699,0.17,0.1581,0.1621,0.1661,0.1672,0.1695,0.1655,0.1651,0.1683,0.1711,0.1708,0.1749,0.1666,0.1636,0.1393,0.1329,0.1255,0.1378,0.1364,0.1389,0.1417,0.1302,0.1262,0.1073,0.1073,0.1074,0.1074,0.1075,0,0.1526,0.1626,0.1697,0.1689,0.1648,0.1654,0.1629,0.1566,0.1508,0.1489,0.1475,0.1289,0.1234,0.1187,0.1048,0.0998,0.1121,0.0938,0.1154,0.1195,0.1231,0.1117,0.0834,0.0833,0.0831,0.083,0,0,0.1552,0.1575,0.1609,0.1572,0.1586,0.1485,0.1435,0.1334,0.1264,0.1131,0.1056,0.1121,0.1138,0.0938,0.0938,0.0866,0.1024,0.0833,0.1039,0.1335,0.137,0.1493,0.1358,0,0,0,0,0]},{"header":{"parameterUnit":"m.s-1","parameterCategory":2,"la1":30.2991,"la2":30.254,"lo1":-89.0895,"lo2":-89.0444,"dy":0.0017,"dx":0.0017,"nx":28,"ny":28,"refTime":"2025-08-15T21:00:00:Z","depth":"2","parameterNumber":3,"parameterNumberName":"V-component_of_CURRENTS"},"data":[0,0,0,0,0,0,0,0,0,0,0,0,0,0,0,0,0,0,0,0,0,0,0,0,0,0,0,0,0,0,0,0,0,0,0,0,0,0,0,0,0,0,0,0,0,0,0,0,0,0,0,0,0,0,0,0,0,0,0.0015,0.0016,0,-0.0033,-0.0035,-0.0037,-0.0151,-0.0151,-0.0152,-0.0153,-0.0096,-0.0094,-0.0091,0,0,0,0,0,0,0,0,0,0,0,0,0,-0.0033,-0.0033,0.0015,0.0016,0.0017,-0.0033,-0.0035,-0.0038,-0.0151,-0.0151,-0.0152,-0.0153,-0.0096,-0.0094,-0.0091,0,0,0,0,0,0,0,0,0,0,0,0,0,-0.0058,-0.0033,0.0015,-0.0031,-0.0034,-0.0032,-0.0035,-0.0038,-0.0151,-0.0151,-0.0152,-0.0153,-0.0097,-0.0094,-0.0091,-0.0053,0,0,-0.0081,-0.008,0,0,0,0,0,0,0,0,-0.0056,-0.0059,-0.0026,-0.0028,-0.0031,-0.007,-0.003,-0.0031,-0.015,-0.0127,-0.0153,-0.0154,-0.0064,-0.0064,-0.01,-0.005,-0.0048,-0.0081,-0.0079,-0.0078,-0.0077,0,0,0,0,0,0,0,-0.0055,-0.0057,-0.0024,-0.0024,-0.0027,-0.0062,-0.0069,-0.0033,-0.0102,-0.0129,-0.0132,-0.0107,-0.0068,-0.0103,-0.0098,-0.0047,-0.0081,-0.0078,-0.0076,-0.0075,0.0034,0.0035,0,0,0,0,0,0,-0.0007,-0.0055,-0.0022,-0.0023,-0.0025,-0.0059,-0.0067,-0.0072,-0.0105,-0.0106,-0.0106,-0.0112,-0.0107,-0.0102,-0.0096,-0.0028,-0.0078,-0.0075,-0.0073,0.0033,0.0034,0.0035,0,0,0,0,0,0,-0.0008,-0.0005,-0.0019,-0.0023,-0.0025,-0.0055,-0.0061,-0.0072,-0.0122,-0.0085,-0.0089,-0.0143,-0.0108,-0.0101,-0.0039,-0.0027,-0.0073,-0.0071,0.0031,0.0033,0.0034,0.0094,0,0,0,0,0,0,-0.001,-0.0006,-0.0014,-0.0021,-0.0022,-0.0038,-0.0059,-0.0072,-0.0094,-0.0104,-0.0117,-0.0113,-0.0108,-0.0043,-0.0036,-0.0024,-0.0068,0.003,0.0032,0.0034,0.0091,0.0097,0.0103,0,0,0,0,0,-0.0013,-0.0006,-0.0015,-0.001,-0.0027,-0.0036,-0.0045,-0.008,-0.0095,-0.013,-0.0094,-0.0114,-0.0028,-0.0038,-0.003,-0.0017,0.0029,0.0032,0.0034,0.0088,0.0096,0.0103,0,0,0,0,0,0,-0.0039,-0.0015,-0.0026,-0.0017,-0.0032,-0.0049,-0.007,-0.0083,-0.0095,-0.0098,-0.0077,-0.0069,-0.0016,-0.002,-0.0032,0.0017,-0.0012,-0.0008,0.0026,0.0033,0.0039,0.0026,-0.0066,0,0,0,0,0,-0.0038,-0.0021,-0.0024,-0.0014,-0.0032,-0.0057,-0.0067,-0.0089,-0.0078,-0.0093,-0.0072,-0.0047,-0.0,0.0015,0.0043,0.0085,0.0077,0.009,0.0096,0.0101,0.0095,0.01,0.0106,0.0042,0.0042,0.0042,0,0,-0.0036,-0.0017,-0.001,-0.0016,-0.0043,-0.0056,-0.0074,-0.0095,-0.0083,-0.0071,-0.0049,-0.0016,0.0019,0.0066,0.0085,0.0064,0.0122,0.0104,0.0109,0.0099,0.0103,0.0109,0.0114,0.0044,0.0044,0.0043,0,0,-0.0009,-0.0029,-0.0015,-0.0037,-0.0049,-0.0062,-0.0065,-0.0085,-0.0093,-0.0052,-0.0025,0.0025,0.0067,0.0105,0.0131,0.0188,0.0161,0.0181,0.0198,0.0204,0.0209,0.0214,0.0239,0.0245,0.0176,0.0176,0.0176,0,-0.0019,-0.0003,-0.0016,-0.0024,-0.0032,-0.0061,-0.0073,-0.0075,-0.0055,-0.0022,-0.0043,0.0056,0.0085,0.0173,0.019,0.0202,0.0201,0.0172,0.0212,0.0216,0.0219,0.0244,0.025,0.0179,0.0179,0.0178,0.0178,0,0.0008,0.0003,-0.0001,-0.0012,-0.0027,-0.0048,-0.0044,-0.0035,-0.003,-0.0008,0.0064,0.0106,0.0164,0.0178,0.0205,0.0256,0.0249,0.0227,0.0193,0.0229,0.0254,0.0259,0.0184,0.0182,0.0181,0.0181,0,0,0.0004,0.0017,0.0,-0.0003,-0.0035,-0.0042,-0.0009,0.0017,0.0065,0.0073,0.0133,0.0207,0.022,0.025,0.0283,0.0285,0.0327,0.0262,0.0261,0.0288,0.0352,0.0326,0.0329,0.0305,0.0306,0.0306,0.0369,0,0.0004,0.0011,0.0016,0.0007,-0.0005,-0.0013,0.0027,0.006,0.0099,0.0157,0.0192,0.0259,0.0252,0.0289,0.0293,0.0324,0.0337,0.0312,0.0312,0.0312,0.0284,0.0332,0.0297,0.0347,0.0374,0.0375,0.0375,0,0.0,0.0012,0.0013,0.0032,0.0019,0.0024,0.0073,0.0109,0.0195,0.0231,0.0287,0.0319,0.0373,0.0332,0.0375,0.0356,0.0359,0.0358,0.036,0.0311,0.0294,0.0309,0.0354,0.0383,0.0382,0.0382,0.0381,0,0.0014,-0.0003,0.0009,-0.0,0.0025,0.0044,0.0056,0.0136,0.0195,0.0283,0.0331,0.0383,0.0419,0.0408,0.0421,0.0398,0.0439,0.041,0.0394,0.0394,0.035,0.0343,0.0425,0.0425,0.0425,0.0425,0.0425,0,0.0023,0.0022,0.0011,0.0027,0.0052,0.0046,0.012,0.0164,0.0236,0.032,0.0365,0.0432,0.0432,0.0463,0.0443,0.0442,0.0462,0.0408,0.0406,0.0373,0.0368,0.0375,0.0369,0.0427,0.0427,0.0426,0.0426,0,0.0059,0.0052,0.0071,0.0076,0.0081,0.0094,0.0148,0.0214,0.0268,0.0375,0.04,0.0479,0.0512,0.0516,0.0522,0.0489,0.0477,0.0473,0.0445,0.0437,0.0425,0.042,0.0459,0.0459,0.0458,0.0458,0.0458,0,0.0094,0.0104,0.0111,0.0138,0.0145,0.0169,0.0215,0.0245,0.0309,0.041,0.0455,0.0519,0.0576,0.0578,0.0526,0.0496,0.0496,0.0449,0.039,0.0433,0.0427,0.0424,0.042,0.0376,0.0375,0.0375,0.0374,0,0.0157,0.0147,0.0171,0.0218,0.0248,0.0288,0.0327,0.0368,0.0416,0.0485,0.0555,0.0591,0.0596,0.055,0.0511,0.0476,0.0442,0.0432,0.0496,0.036,0.0356,0.035,0.0349,0.0367,0.0368,0.0369,0.0369,0.0369,0.0205,0.022,0.0251,0.0294,0.0334,0.0381,0.0414,0.0451,0.0513,0.058,0.0607,0.0646,0.0592,0.052,0.046,0.0393,0.0403,0.0366,0.0368,0.0371,0.0336,0.033,0.0333,0.0333,0.0334,0.0334,0.0334,0,0.0271,0.029,0.0332,0.0378,0.0422,0.0429,0.0481,0.0498,0.0545,0.0607,0.0648,0.0595,0.055,0.0489,0.0368,0.0305,0.0299,0.0289,0.0284,0.029,0.0296,0.0257,0.0234,0.0233,0.0233,0.0233,0,0,0.0305,0.0361,0.0367,0.0439,0.0472,0.0503,0.0522,0.0541,0.057,0.0601,0.0618,0.0656,0.057,0.0467,0.0372,0.0298,0.0313,0.0286,0.0369,0.0378,0.0385,0.0336,0.0283,0,0,0,0,0]}],[{"header":{"parameterUnit":"m.s-1","parameterCategory":2,"la1":30.2991,"la2":30.254,"lo1":-89.0895,"lo2":-89.0444,"dy":0.0017,"dx":0.0017,"nx":28,"ny":28,"refTime":"2025-08-15T21:00:00:Z","depth":"4","parameterNumber":2,"parameterNumberName":"U-component_of_CURRENTS"},"data":[0,0,0,0,0,0,0,0,0,0,0,0,0,0,0,0,0,0,0,0,0,0,0,0,0,0,0,0,0,0,0,0,0,0,0,0,0,0,0,0,0,0,0,0,0,0,0,0,0,0,0,0,0,0,0,0,0,0,-0.0386,-0.0386,0,-0.0383,-0.0383,-0.0383,-0.0399,-0.04,-0.0401,-0.0401,-0.0509,-0.0511,-0.0514,0,0,0,0,0,0,0,0,0,0,0,0,0,-0.0371,-0.0371,-0.0386,-0.0386,-0.0386,-0.0383,-0.0383,-0.0383,-0.0399,-0.04,-0.0401,-0.0401,-0.0508,-0.0511,-0.0514,0,0,0,0,0,0,0,0,0,0,0,0,0,-0.0373,-0.0371,-0.0386,-0.0394,-0.0395,-0.0383,-0.0383,-0.0383,-0.0399,-0.04,-0.0401,-0.0402,-0.0507,-0.0511,-0.0514,-0.0521,0,0,-0.0525,-0.0527,0,0,0,0,0,0,0,0,-0.0373,-0.0374,-0.0393,-0.0393,-0.0394,-0.0393,-0.0417,-0.0435,-0.0399,-0.0397,-0.0401,-0.0402,-0.048,-0.0486,-0.0481,-0.0526,-0.053,-0.0525,-0.0528,-0.0529,-0.053,0,0,0,0,0,0,0,-0.0373,-0.0374,-0.0384,-0.0393,-0.0394,-0.0386,-0.0388,-0.042,-0.0436,-0.0397,-0.0399,-0.0399,-0.0481,-0.0478,-0.0484,-0.0532,-0.0525,-0.0529,-0.0531,-0.0532,-0.0596,-0.0596,0,0,0,0,0,0,-0.0375,-0.0374,-0.0384,-0.0384,-0.0386,-0.0386,-0.0388,-0.0392,-0.0433,-0.0439,-0.0398,-0.04,-0.0471,-0.048,-0.0488,-0.0478,-0.0529,-0.0532,-0.0535,-0.0597,-0.0596,-0.0596,0,0,0,0,0,0,-0.0375,-0.0376,-0.0384,-0.0379,-0.0379,-0.0386,-0.039,-0.0392,-0.0404,-0.0433,-0.0441,-0.0412,-0.0472,-0.0483,-0.0529,-0.0484,-0.0534,-0.0537,-0.0597,-0.0597,-0.0596,-0.0472,0,0,0,0,0,0,-0.0375,-0.0376,-0.0383,-0.0379,-0.038,-0.0391,-0.039,-0.0391,-0.0402,-0.0405,-0.0447,-0.0456,-0.0474,-0.0524,-0.0533,-0.049,-0.054,-0.0598,-0.0597,-0.0596,-0.0477,-0.0467,-0.0459,0,0,0,0,0,-0.0374,-0.0377,-0.0383,-0.0385,-0.0388,-0.0391,-0.0391,-0.0397,-0.0402,-0.0411,-0.0438,-0.0456,-0.0524,-0.0527,-0.0538,-0.0494,-0.0598,-0.0597,-0.0596,-0.048,-0.0469,-0.0459,0,0,0,0,0,0,-0.0369,-0.0379,-0.0386,-0.0391,-0.0399,-0.0395,-0.0406,-0.0405,-0.0429,-0.044,-0.0465,-0.0476,-0.0491,-0.0527,-0.0529,-0.0513,-0.0559,-0.056,-0.0467,-0.0457,-0.0448,-0.0438,-0.0543,0,0,0,0,0,-0.0372,-0.0393,-0.0388,-0.0403,-0.0405,-0.0408,-0.0412,-0.0414,-0.043,-0.0441,-0.0453,-0.0477,-0.0491,-0.0505,-0.0529,-0.0534,-0.0599,-0.0512,-0.0503,-0.0495,-0.0496,-0.0585,-0.0584,-0.0592,-0.0592,-0.0592,0,0,-0.0382,-0.0388,-0.0402,-0.0406,-0.0416,-0.0411,-0.0414,-0.0426,-0.0413,-0.0452,-0.0445,-0.0456,-0.0491,-0.0481,-0.049,-0.0507,-0.0522,-0.0494,-0.0486,-0.0492,-0.0584,-0.0583,-0.0583,-0.0592,-0.0592,-0.0592,0,0,-0.0404,-0.0412,-0.0431,-0.0431,-0.044,-0.0431,-0.0436,-0.0426,-0.0417,-0.0402,-0.0424,-0.0431,-0.043,-0.0448,-0.0456,-0.0429,-0.0478,-0.041,-0.0348,-0.0432,-0.0432,-0.0434,-0.0489,-0.0496,-0.0398,-0.0398,-0.0397,0,-0.0404,-0.0422,-0.0437,-0.0441,-0.0431,-0.0439,-0.0431,-0.0423,-0.0421,-0.041,-0.0391,-0.0392,-0.0414,-0.0426,-0.0378,-0.0407,-0.0448,-0.0376,-0.042,-0.0423,-0.0426,-0.0483,-0.0492,-0.0391,-0.0392,-0.0393,-0.0393,0,-0.0431,-0.0437,-0.0448,-0.0452,-0.0446,-0.0444,-0.0425,-0.0411,-0.0376,-0.0355,-0.0338,-0.035,-0.0345,-0.0334,-0.0325,-0.034,-0.0357,-0.0402,-0.0442,-0.0417,-0.0479,-0.0491,-0.0383,-0.0385,-0.0387,-0.0388,0,0,-0.0433,-0.0456,-0.046,-0.0457,-0.044,-0.0439,-0.0412,-0.0383,-0.038,-0.0329,-0.0316,-0.0275,-0.026,-0.0271,-0.0276,-0.0317,-0.0339,-0.0328,-0.0336,-0.0372,-0.0492,-0.0289,-0.0284,-0.0377,-0.0379,-0.0381,-0.0516,0,-0.0438,-0.0449,-0.0448,-0.0442,-0.0435,-0.0413,-0.0388,-0.0369,-0.034,-0.0332,-0.0318,-0.031,-0.0245,-0.023,-0.0249,-0.0339,-0.0367,-0.0297,-0.052,-0.0526,-0.0342,-0.029,-0.0387,-0.0525,-0.0528,-0.053,-0.0531,0,-0.0448,-0.0452,-0.0442,-0.0428,-0.0422,-0.0403,-0.0372,-0.0354,-0.0348,-0.0319,-0.0292,-0.0293,-0.0298,-0.0274,-0.0371,-0.0316,-0.0368,-0.0438,-0.0447,-0.0311,-0.0345,-0.0565,-0.0554,-0.0553,-0.0551,-0.0549,-0.0548,0,-0.0452,-0.0441,-0.043,-0.0423,-0.0406,-0.0379,-0.0358,-0.0342,-0.033,-0.0326,-0.0324,-0.0329,-0.0342,-0.0405,-0.0432,-0.0414,-0.0578,-0.0608,-0.0487,-0.0476,-0.068,-0.0678,-0.0701,-0.0701,-0.0701,-0.07,-0.07,0,-0.0435,-0.0442,-0.0426,-0.043,-0.0409,-0.0377,-0.036,-0.0347,-0.0331,-0.0295,-0.0313,-0.0282,-0.0371,-0.0434,-0.0474,-0.0471,-0.0608,-0.0456,-0.0487,-0.062,-0.0611,-0.0687,-0.0684,-0.0705,-0.0704,-0.0703,-0.0703,0,-0.0448,-0.0441,-0.045,-0.0429,-0.0419,-0.0401,-0.0363,-0.0337,-0.0333,-0.0296,-0.0283,-0.0289,-0.0278,-0.0381,-0.0511,-0.0507,-0.0571,-0.0554,-0.0665,-0.0706,-0.0411,-0.04,-0.0435,-0.0429,-0.0423,-0.0419,-0.0415,0,-0.0447,-0.0453,-0.0477,-0.0452,-0.0435,-0.04,-0.0361,-0.0336,-0.0306,-0.0241,-0.0222,-0.0204,-0.0174,-0.0254,-0.0325,-0.0417,-0.0408,-0.0501,-0.0434,-0.0351,-0.038,-0.0377,-0.0374,-0.0407,-0.0405,-0.0404,-0.0403,0,-0.0455,-0.0485,-0.0503,-0.0464,-0.0417,-0.0364,-0.0309,-0.0308,-0.0221,-0.024,-0.0112,-0.007,-0.0058,-0.0099,-0.0181,-0.0241,-0.0474,-0.0446,-0.0457,-0.0395,-0.0318,-0.0351,-0.0354,-0.0384,-0.0387,-0.0388,-0.039,0,-0.0473,-0.0482,-0.0495,-0.0443,-0.0372,-0.0268,-0.0292,-0.0196,-0.0167,-0.0105,-0.0029,0.0013,0.0015,-0.0001,-0.0059,-0.0095,-0.0081,-0.0158,-0.0184,-0.0206,-0.0056,0.0081,0.013,0,0,0,0,0,-0.045,-0.0442,-0.0432,-0.0372,-0.0295,-0.0231,-0.0191,-0.0207,-0.0172,-0.0052,-0.0032,0.0041,0.0105,0.0084,0.0097,0.0036,-0.0125,0.0046,-0.0238,-0.0282,-0.0303,-0.0141,0,0,0,0,0,0,-0.0417,-0.0439,-0.0433,-0.0279,-0.0201,-0.0098,-0.0055,-0.006,-0.0035,-0.0002,0.0002,0.0061,0.0062,0.013,0.0116,0.0109,-0.0069,0.0061,0.0061,-0.027,-0.0289,-0.0306,-0.0147,0,0,0,0,0]},{"header":{"parameterUnit":"m.s-1","parameterCategory":2,"la1":30.2991,"la2":30.254,"lo1":-89.0895,"lo2":-89.0444,"dy":0.0017,"dx":0.0017,"nx":28,"ny":28,"refTime":"2025-08-15T21:00:00:Z","depth":"4","parameterNumber":3,"parameterNumberName":"V-component_of_CURRENTS"},"data":[0,0,0,0,0,0,0,0,0,0,0,0,0,0,0,0,0,0,0,0,0,0,0,0,0,0,0,0,0,0,0,0,0,0,0,0,0,0,0,0,0,0,0,0,0,0,0,0,0,0,0,0,0,0,0,0,0,0,0.0243,0.0243,0,0.024,0.0241,0.0241,0.03,0.0301,0.0303,0.0304,0.0366,0.0367,0.0367,0,0,0,0,0,0,0,0,0,0,0,0,0,0.0235,0.0235,0.0243,0.0243,0.0242,0.024,0.0241,0.0241,0.03,0.0301,0.0303,0.0305,0.0366,0.0367,0.0367,0,0,0,0,0,0,0,0,0,0,0,0,0,0.0238,0.0235,0.0243,0.027,0.0272,0.024,0.0241,0.0241,0.0299,0.0301,0.0303,0.0305,0.0366,0.0367,0.0367,0.0329,0,0,0.0369,0.0369,0,0,0,0,0,0,0,0,0.0238,0.0239,0.0266,0.0268,0.027,0.0271,0.026,0.0273,0.0299,0.0291,0.0304,0.0306,0.0337,0.034,0.0337,0.0332,0.0335,0.0369,0.0369,0.0369,0.037,0,0,0,0,0,0,0,0.0238,0.0239,0.0244,0.0266,0.0268,0.026,0.0264,0.0262,0.0306,0.0292,0.0296,0.0291,0.034,0.0337,0.034,0.0336,0.0369,0.0369,0.037,0.037,0.0345,0.0345,0,0,0,0,0,0,0.0234,0.0239,0.0244,0.0244,0.0256,0.0258,0.0263,0.027,0.0304,0.031,0.0289,0.0294,0.0335,0.0339,0.0342,0.0349,0.0369,0.037,0.037,0.0346,0.0345,0.0344,0,0,0,0,0,0,0.0234,0.0235,0.0244,0.0239,0.0239,0.0257,0.0265,0.0269,0.0305,0.0301,0.031,0.0325,0.0337,0.0341,0.037,0.035,0.037,0.0371,0.0348,0.0346,0.0345,0.033,0,0,0,0,0,0,0.0234,0.0236,0.0247,0.0239,0.0239,0.0249,0.0262,0.0267,0.0295,0.0303,0.0333,0.0339,0.0339,0.0369,0.0371,0.0351,0.0371,0.0349,0.0347,0.0345,0.0332,0.0328,0.0325,0,0,0,0,0,0.0234,0.0232,0.0248,0.0249,0.0253,0.0249,0.0249,0.0269,0.0296,0.031,0.0334,0.034,0.0357,0.037,0.0371,0.0351,0.035,0.0347,0.0345,0.0333,0.0329,0.0325,0,0,0,0,0,0,0.0233,0.0237,0.0255,0.0256,0.0266,0.0259,0.0272,0.0286,0.0314,0.0345,0.0342,0.0348,0.0355,0.0359,0.0372,0.0336,0.0348,0.0346,0.0338,0.0334,0.0331,0.0339,0.0372,0,0,0,0,0,0.0237,0.0245,0.0248,0.0255,0.0265,0.0278,0.0283,0.0309,0.0323,0.034,0.0356,0.0363,0.0336,0.0348,0.0339,0.0335,0.034,0.0317,0.0314,0.0311,0.0317,0.0285,0.028,0.0337,0.0337,0.0337,0,0,0.0232,0.0242,0.0244,0.0257,0.0272,0.0279,0.0289,0.0322,0.0326,0.0341,0.0369,0.0361,0.0333,0.0319,0.0321,0.033,0.0303,0.0309,0.0307,0.0314,0.0282,0.0277,0.0272,0.0335,0.0336,0.0336,0,0,0.024,0.0251,0.027,0.0278,0.0313,0.0309,0.0326,0.035,0.0365,0.0385,0.0372,0.0361,0.0361,0.0317,0.0292,0.0267,0.0283,0.0265,0.0262,0.023,0.0225,0.0221,0.0249,0.0247,0.0267,0.0267,0.0267,0,0.0235,0.0264,0.0273,0.0298,0.0298,0.0325,0.0342,0.0343,0.0374,0.0369,0.0405,0.0354,0.0346,0.0268,0.0261,0.0257,0.0272,0.028,0.0227,0.0222,0.0218,0.0248,0.0246,0.0266,0.0266,0.0266,0.0266,0,0.0257,0.0286,0.0298,0.033,0.0329,0.0352,0.035,0.0369,0.0392,0.0384,0.0358,0.0337,0.0308,0.0281,0.0271,0.0213,0.0246,0.0224,0.024,0.0212,0.0245,0.0243,0.0265,0.0265,0.0265,0.0265,0,0,0.0233,0.0297,0.0308,0.0329,0.0352,0.0352,0.0352,0.0337,0.0329,0.035,0.0315,0.0267,0.0277,0.0248,0.0218,0.0187,0.018,0.0209,0.0207,0.0245,0.0166,0.013,0.0126,0.0155,0.0154,0.0153,0.0211,0,0.0253,0.0302,0.0319,0.0345,0.0363,0.0365,0.0349,0.0343,0.0334,0.031,0.0269,0.0244,0.0253,0.0248,0.0214,0.0169,0.0172,0.017,0.0181,0.0182,0.0158,0.012,0.015,0.021,0.021,0.021,0.021,0,0.0264,0.0303,0.0347,0.0357,0.0363,0.0388,0.0359,0.0353,0.0309,0.0306,0.0275,0.0243,0.0191,0.0212,0.0162,0.0169,0.0189,0.0167,0.0168,0.0138,0.0142,0.0235,0.0207,0.0208,0.0208,0.0208,0.0208,0,0.0242,0.0298,0.0336,0.0346,0.0374,0.0402,0.0414,0.0383,0.0367,0.0328,0.0298,0.0241,0.0222,0.0202,0.0179,0.0184,0.0131,0.0126,0.0122,0.0123,0.0149,0.0152,0.0121,0.0121,0.0121,0.0121,0.0121,0,0.0226,0.0252,0.0358,0.0383,0.0425,0.0441,0.0464,0.0451,0.0428,0.0385,0.0328,0.0262,0.0221,0.017,0.0172,0.0139,0.0141,0.0121,0.0117,0.0146,0.0148,0.0151,0.0153,0.0123,0.0123,0.0122,0.0122,0,0.0189,0.0253,0.0302,0.0388,0.0433,0.0473,0.0535,0.052,0.0505,0.0442,0.0433,0.0307,0.0231,0.0182,0.014,0.0131,0.0099,0.0106,0.0176,0.0175,0.0131,0.0132,0.0104,0.0103,0.0102,0.0101,0.01,0,0.0167,0.0206,0.0326,0.0387,0.0457,0.0539,0.0576,0.0588,0.0541,0.0448,0.0375,0.03,0.0215,0.0133,0.009,0.0085,0.0086,0.0109,0.0087,0.0121,0.0121,0.0123,0.0126,0.0099,0.0098,0.0098,0.0098,0,0.0133,0.0195,0.0244,0.0391,0.0479,0.0524,0.0569,0.0541,0.0501,0.0472,0.0346,0.0285,0.0179,0.0112,0.0111,0.01,0.0093,0.0099,0.0101,0.0081,0.0115,0.0115,0.0119,0.0094,0.0095,0.0095,0.0095,0,0.0107,0.0146,0.0256,0.037,0.0464,0.05,0.0519,0.0485,0.0464,0.0352,0.0322,0.0224,0.0188,0.0119,0.0099,0.0087,0.0086,0.0107,0.0109,0.0112,0.0073,0.0115,0.0086,0,0,0,0,0,0.0107,0.0164,0.0238,0.0359,0.0437,0.0508,0.0492,0.048,0.0431,0.0353,0.0352,0.026,0.0198,0.013,0.0115,0.0067,0.0074,0.0047,0.0098,0.0075,0.0079,0.0024,0,0,0,0,0,0,0.0107,0.0182,0.0223,0.0332,0.0419,0.0492,0.0487,0.045,0.0381,0.0339,0.0288,0.0289,0.0202,0.024,0.0135,0.0121,0.0154,0.0015,0.0015,0.0073,0.0076,0.008,0.0024,0,0,0,0,0]}]]